Aurora, IL

2:22 PM CDT on April 28, 2017 (GMT -0500)
Aurora Municipal

Weather History for KARR - November, 2011

Change the Weather History Date:

Thursday, November 24, 2011

  Actual Average Record
Temperature  
Mean Temperature 44 °F 34 °F  
Max Temperature 48 °F 43 °F 63 °F (2001)
Min Temperature 39 °F 25 °F 8 °F (2013)
Degree Days  
Heating Degree Days 22 31  
Month to date heating degree days 609  
Since 1 July heating degree days 1216  
Cooling Degree Days 0 0  
Month to date cooling degree days 0  
Year to date cooling degree days 655  
Moisture  
Dew Point 40 °F    
Average Humidity 91    
Maximum Humidity 93    
Minimum Humidity 83    
Precipitation  
Precipitation 0.00 in 0.08 in 0.60 in (2001)
Month to date precipitation 2.57  
Year to date precipitation 34.33  
Sea Level Pressure  
Sea Level Pressure 30.17 in    
Wind  
Wind Speed 12 mph (SSW)    
Max Wind Speed 16 mph    
Max Gust Speed 24 mph    
Visibility 4 miles    
Events      
T = Trace of Precipitation, MM = Missing Value Source: NWS Daily Summary

Daily Weather History Graph

Daily Weather History Graph

Search for Another Location

Airport or City:

Trip Planner

Search our weather history database for the weather conditions in past years. The results will help you decide how hot, cold, wet, or windy it might be!

Date:

Astronomy

Nov. 24, 2011 Rise Set
Actual Time 6:53 AM CST 4:27 PM CST
Civil Twilight 6:23 AM CST 4:57 PM CST
Nautical Twilight 5:48 AM CST 5:31 PM CST
Astronomical Twilight 5:15 AM CST 6:05 PM CST
Moon 6:11 AM CST (11/24) 3:57 PM CST (11/24)
Length of Visible Light 10h 34m
Length of Day
9h 33m
Waning Crescent, 0% of the Moon is Illuminated
Nov 24
Waning Crescent
Nov 25
New
Dec 2
First Quarter
Dec 10
Full
Dec 17
Last Quarter

Hourly Weather History & Observations

Time (CST) Temp. Windchill Dew Point Humidity Pressure Visibility Wind Dir Wind Speed Gust Speed Precip Events Conditions
12:52 AM 41.0 °F 34.3 °F 39.0 °F 93% 30.22 in 3.0 mi SW 11.5 mph - N/A   Overcast
1:52 AM 41.0 °F 34.7 °F 39.0 °F 93% 30.23 in 3.0 mi SW 10.4 mph - N/A   Overcast
2:52 AM 41.0 °F 33.5 °F 39.0 °F 93% 30.24 in 3.0 mi WSW 13.8 mph 19.6 mph N/A   Overcast
3:52 AM 41.0 °F 35.8 °F 39.0 °F 93% 30.23 in 3.0 mi SW 8.1 mph - N/A   Overcast
4:04 AM 41.0 °F 34.7 °F 39.2 °F 93% 30.22 in 2.5 mi SW 10.4 mph - N/A   Overcast
4:28 AM 39.2 °F 33.0 °F 37.4 °F 93% 30.22 in 3.0 mi SW 9.2 mph - N/A   Overcast
4:52 AM 39.9 °F 33.9 °F 37.9 °F 93% 30.24 in 3.0 mi SSW 9.2 mph - N/A   Overcast
5:18 AM 39.2 °F 33.6 °F 37.4 °F 93% 30.22 in 4.0 mi SW 8.1 mph - N/A   Overcast
5:52 AM 39.9 °F 32.9 °F 37.9 °F 93% 30.24 in 4.0 mi SW 11.5 mph - N/A   Overcast
7:33 AM 41.0 °F 34.7 °F 39.2 °F 93% 30.22 in 2.5 mi SSW 10.4 mph - N/A   Overcast
8:52 AM 41.0 °F 33.9 °F 39.0 °F 93% 30.24 in 2.0 mi SSW 12.7 mph 19.6 mph N/A   Overcast
9:18 AM 41.0 °F 34.3 °F 39.2 °F 93% 30.22 in 1.8 mi South 11.5 mph - N/A   Overcast
9:30 AM 41.0 °F 34.3 °F 39.2 °F 93% 30.22 in 2.0 mi South 11.5 mph - N/A   Overcast
9:52 AM 41.0 °F 33.5 °F 39.0 °F 93% 30.23 in 2.5 mi South 13.8 mph - N/A   Overcast
10:52 AM 43.0 °F 36.4 °F 39.9 °F 89% 30.22 in 2.5 mi South 12.7 mph - N/A   Overcast
11:28 AM 44.6 °F 38.4 °F 41.0 °F 87% 30.19 in 3.0 mi South 12.7 mph - N/A   Overcast
11:52 AM 44.1 °F 37.4 °F 41.0 °F 89% 30.20 in 3.0 mi South 13.8 mph 20.7 mph N/A   Overcast
12:52 PM 45.0 °F 38.9 °F 41.0 °F 86% 30.18 in 4.0 mi South 12.7 mph - N/A   Overcast
1:52 PM 46.0 °F 39.3 °F 42.1 °F 86% 30.15 in 4.0 mi South 16.1 mph 20.7 mph N/A   Overcast
2:28 PM 46.4 °F 41.1 °F 42.8 °F 87% 30.13 in 5.0 mi South 11.5 mph 19.6 mph N/A   Overcast
2:52 PM 48.0 °F - 43.0 °F 83% 30.13 in 5.0 mi South 16.1 mph 24.2 mph N/A   Haze
3:48 PM 46.4 °F 40.7 °F 42.8 °F 87% 30.11 in 5.0 mi South 12.7 mph - N/A   Scattered Clouds
3:52 PM 46.9 °F - 43.0 °F 86% 30.12 in 5.0 mi South 12.7 mph 21.9 mph N/A   Partly Cloudy
4:52 PM 45.0 °F 39.3 °F 42.1 °F 90% 30.12 in 6.0 mi South 11.5 mph - N/A   Clear
5:52 PM 44.1 °F 38.1 °F 41.0 °F 89% 30.11 in 5.0 mi South 11.5 mph - N/A   Clear
6:52 PM 43.0 °F 36.4 °F 41.0 °F 93% 30.11 in 5.0 mi South 12.7 mph - N/A   Scattered Clouds
7:21 PM 42.8 °F 35.8 °F 41.0 °F 93% 30.10 in 6.0 mi South 13.8 mph - N/A   Mostly Cloudy
7:52 PM 42.1 °F 34.9 °F 39.9 °F 92% 30.10 in 6.0 mi South 13.8 mph - N/A   Clear
8:52 PM 42.1 °F 36.1 °F 39.9 °F 92% 30.09 in 5.0 mi South 10.4 mph - N/A   Clear
9:52 PM 42.1 °F 35.7 °F 39.0 °F 89% 30.08 in 5.0 mi South 11.5 mph - N/A   Clear
10:52 PM 42.1 °F 35.2 °F 39.0 °F 89% 30.07 in 5.0 mi South 12.7 mph - N/A   Clear
11:52 PM 41.0 °F 33.9 °F 37.9 °F 89% 30.07 in 5.0 mi South 12.7 mph - N/A   Clear